1362096029678,131.031
1362096089678,131.103
1362096149678,131.084
1362096209678,131.188
1362096269678,131.220
1362096329678,131.327
1362096389678,131.066
1362096449678,131.169
1362096509678,131.205
1362096569678,131.331
1362096629678,131.306
1362096689678,131.157
1362096749678,131.167
1362096809678,131.555
1362096869678,130.974
1362096929678,131.222
1362096989678,130.897
1362097049678,130.951
1362097109678,131.021
1362097169678,131.138
1362097229678,131.151
1362097289678,131.270
1362097349678,131.079
1362097409678,131.424
1362097469678,130.952
1362097529678,131.159
1362097589678,131.209
1362097649678,131.166
1362097709678,131.041
1362097769678,131.346
1362097829678,131.127
1362097889678,131.227
1362097949678,131.141
1362098009678,130.921
1362098069678,131.036
1362098129678,131.045
1362098189678,130.899
1362098249678,130.862
1362098309678,131.332
1362098369678,131.171
1362098429678,131.111
1362098489678,131.067
1362098549678,131.530
1362098609678,130.903
1362098669678,131.202
1362098729678,130.924
1362098789678,131.381
1362098849678,131.397
1362098909678,131.274
1362098969678,131.422
1362099029678,131.219
1362099089678,131.123
1362099149678,131.438
1362099209678,131.221
1362099269678,131.458
1362099329678,131.082
1362099389678,131.132
1362099449678,131.100
1362099509678,131.430
1362099569678,131.437
1362099629689,131.044
1362099689689,131.271
1362099749689,130.996
1362099809689,131.456
1362099869689,131.437
1362099929689,131.457
1362099989689,131.083
1362100049689,131.116
1362100109689,131.088
1362100169689,131.197
1362100229689,131.269
1362100289689,131.342
1362100349689,131.290
1362100409689,131.113
1362100469689,131.676
1362100529689,131.642
1362100589689,131.556
1362100649689,131.636
1362100709689,131.618
1362100769689,131.826
1362100829689,131.955
1362100889689,131.488
1362100949689,131.466
1362101009689,131.514
1362101069689,131.727
1362101129689,131.550
1362101189689,131.619
1362101249689,131.796
1362101309689,131.571
1362101369689,131.239
1362101429689,131.504
1362101489689,131.179
1362101549689,131.319
1362101609689,131.382
1362101669689,131.290
1362101729689,131.483
1362101789689,131.578
1362101849689,131.595
1362101909689,131.778
1362101969689,131.519
1362102029689,131.544
1362102089689,131.773
1362102149689,131.413
1362102209689,131.572
1362102269689,131.403
1362102329689,131.467
1362102389689,131.760
1362102449689,131.518
1362102509689,131.579
1362102569689,131.229
1362102629689,131.476
1362102689689,131.231
1362102749689,131.712
1362102809689,131.568
1362102869689,131.547
1362102929689,131.390
1362102989689,131.292
1362103049689,131.556
1362103109689,131.310
1362103169689,131.334
1362103229715,131.550
1362103289715,131.309
1362103349715,131.333
1362103409715,131.381
1362103469715,131.570
1362103529715,131.501
1362103589715,131.349
1362103649715,131.616
1362103709715,131.555
1362103769715,131.710
1362103829715,131.290
1362103889715,131.332
1362103949715,131.458
1362104009715,131.357
1362104069715,131.459
1362104129715,131.276
1362104189715,131.414
1362104249715,131.360
1362104309715,131.454
1362104369715,131.401
1362104429715,131.444
1362104489715,131.621
1362104549715,131.182
1362104609715,131.153
1362104669715,131.427
1362104729715,131.216
1362104789715,131.372
1362104849715,131.725
1362104909715,131.678
1362104969715,131.722
1362105029715,131.363
1362105089715,131.531
1362105149715,131.538
1362105209715,131.869
1362105269715,131.423
1362105329715,131.681
1362105389715,131.706
1362105449715,131.895
1362105509715,131.423
1362105569715,131.769
1362105629715,131.493
1362105689715,131.907
1362105749715,131.727
1362105809715,131.829
1362105869715,131.737
1362105929715,131.810
1362105989715,132.002
1362106049715,131.391
1362106109715,131.688
1362106169715,131.645
1362106229715,131.533
1362106289715,131.627
1362106349715,131.944
1362106409715,131.875
1362106469715,131.639
1362106529715,131.518
1362106589715,131.704
1362106649715,131.557
1362106709715,131.924
1362106769715,131.358
1362106829727,131.691
1362106889727,131.561
1362106949727,131.573
1362107009727,131.699
1362107069727,131.476
1362107129727,131.483
1362107189727,131.810
1362107249727,131.501
1362107309727,131.392
1362107369727,131.524
1362107429727,131.682
1362107489727,131.470
1362107549727,131.549
1362107609727,131.505
1362107669727,131.607
1362107729727,131.723
1362107789727,131.671
1362107849727,131.605
1362107909727,131.704
1362107969727,131.505
1362108029727,131.381
1362108089727,131.703
1362108149727,131.729
1362108209727,131.479
1362108269727,131.553
1362108329727,131.686
1362108389727,131.884
1362108449727,131.948
1362108509727,131.715
1362108569727,131.495
1362108629727,131.652
1362108689727,131.492
1362108749727,131.498
1362108809727,131.791
1362108869727,131.776
1362108929727,131.723
1362108989727,131.929
1362109049727,131.724
1362109109727,131.831
1362109169727,131.896
1362109229727,131.699
1362109289727,131.611
1362109349727,131.626
1362109409727,131.723
1362109469727,131.619
1362109529727,131.719
1362109589727,131.573
1362109649727,131.456
1362109709727,131.524
1362109769727,131.785
1362109829727,131.539
1362109889727,131.568
1362109949727,131.638
1362110009727,131.399
1362110069727,131.464
1362110129727,131.509
1362110189727,131.446
1362110249727,131.580
1362110309727,131.702
1362110369727,131.447
1362110429738,131.606
1362110489738,131.623
1362110549738,131.659
1362110609738,131.759
1362110669738,131.584
1362110729738,131.855
1362110789738,131.430
1362110849738,131.992
1362110909738,131.610
1362110969738,131.740
1362111029738,131.234
1362111089738,131.499
1362111149738,131.808
1362111209738,131.351
1362111269738,131.765
1362111329738,131.647
1362111389738,131.659
1362111449738,131.628
1362111509738,131.570
1362111569738,131.488
1362111629738,131.699
1362111689738,131.679
1362111749738,131.336
1362111809738,131.805
1362111869738,131.672
1362111929738,131.649
1362111989738,131.561
1362112049738,131.524
1362112109738,131.868
1362112169738,131.634
1362112229738,131.635
1362112289738,131.710
1362112349738,131.360
1362112409738,131.701
1362112469738,131.733
1362112529738,131.670
1362112589738,132.038
1362112649738,132.048
1362112709738,131.930
1362112769738,131.916
1362112829738,131.822
1362112889738,131.887
1362112949738,131.425
1362113009738,132.217
1362113069738,131.897
1362113129738,131.746
1362113189738,131.930
1362113249738,132.070
1362113309738,132.059
1362113369738,132.159
1362113429738,131.766
1362113489738,131.903
1362113549738,132.171
1362113609738,131.978
1362113669738,132.027
1362113729738,132.057
1362113789738,131.869
1362113849738,132.026
1362113909738,132.314
1362113969738,132.127
1362114029749,132.133
1362114089749,132.139
1362114149749,132.083
1362114209749,132.541
1362114269749,132.266
1362114329749,132.271
1362114389749,132.224
1362114449749,132.091
1362114509749,132.476
1362114569749,132.369
1362114629749,132.263
1362114689749,132.148
1362114749749,132.269
1362114809749,133.248
1362114869749,132.017
1362114929749,132.229
1362114989749,132.150
1362115049749,132.210
1362115109749,131.880
1362115169749,132.125
1362115229749,132.242
1362115289749,132.483
1362115349749,132.289
1362115409749,132.066
1362115469749,132.380
1362115529749,132.284
1362115589749,132.347
1362115649749,132.313
1362115709749,132.532
1362115769749,132.135
1362115829749,132.363
1362115889749,132.157
1362115949749,132.050
1362116009749,132.270
1362116069749,132.133
1362116129749,132.215
1362116189749,131.761
1362116249749,132.223
1362116309749,132.055
1362116369749,132.165
1362116429749,132.212
1362116489749,132.154
1362116549749,131.668
1362116609749,131.985
1362116669749,132.099
1362116729749,132.120
1362116789749,132.020
1362116849749,132.208
1362116909749,132.151
1362116969749,132.356
1362117029749,131.947
1362117089749,132.285
1362117149749,131.905
1362117209749,132.093
1362117269749,131.838
1362117329749,132.107
1362117389749,131.985
1362117449749,131.988
1362117509749,131.652
1362117569749,131.767
1362117629761,132.109
1362117689761,132.008
1362117749761,132.043
1362117809761,131.940
1362117869761,132.202
1362117929761,132.287
1362117989761,132.367
1362118049761,132.101
1362118109761,132.008
1362118169761,132.167
1362118229761,131.993
1362118289761,132.047
1362118349761,132.370
1362118409761,132.238
1362118469761,132.126
1362118529761,132.480
1362118589761,131.996
1362118649761,131.741
1362118709761,131.763
1362118769761,132.337
1362118829761,132.160
1362118889761,132.110
1362118949761,132.086
1362119009761,131.905
1362119069761,132.506
1362119129761,132.092
1362119189761,132.228
1362119249761,131.775
1362119309761,132.342
1362119369761,132.160
1362119429761,132.261
1362119489761,132.076
1362119549761,132.315
1362119609761,132.536
1362119669761,132.342
1362119729761,132.411
1362119789761,132.127
1362119849761,132.279
1362119909761,132.427
1362119969761,132.453
1362120029761,132.258
1362120089761,132.272
1362120149761,132.043
1362120209761,132.342
1362120269761,132.344
1362120329761,132.398
1362120389761,132.209
1362120449761,132.226
1362120509761,132.538
1362120569761,132.507
1362120629761,132.586
1362120689761,132.393
1362120749761,132.537
1362120809761,132.531
1362120869761,132.672
1362120929761,132.178
1362120989761,132.471
1362121049761,132.550
1362121109761,132.257
1362121169761,132.300
1362121229772,132.446
1362121289772,132.406
1362121349772,132.604
1362121409772,132.540
1362121469772,132.409
1362121529772,132.066
1362121589772,132.458
1362121649772,132.695
1362121709772,132.501
1362121769772,132.544
1362121829772,132.435
1362121889772,132.474
1362121949772,132.404
1362122009772,132.496
1362122069772,132.654
1362122129772,132.308
1362122189772,132.425
1362122249772,132.349
1362122309772,132.220
1362122369772,132.351
1362122429772,132.541
1362122489772,132.306
1362122549772,132.413
1362122609772,132.442
1362122669772,132.566
1362122729772,132.304
1362122789772,132.445
1362122849772,132.494
1362122909772,132.328
1362122969772,132.326
1362123029772,132.404
1362123089772,132.683
1362123149772,132.344
1362123209772,132.117
1362123269772,132.609
1362123329772,132.285
1362123389772,132.311
1362123449772,132.309
1362123509772,132.480
1362123569772,132.356
1362123629772,132.513
1362123689772,132.146
1362123749772,132.193
1362123809772,132.254
1362123869772,132.381
1362123929772,132.519
1362123989772,132.299
1362124049772,132.565
1362124109772,132.445
1362124169772,132.246
1362124229772,132.803
1362124289772,132.665
1362124349772,132.451
1362124409772,132.243
1362124469772,132.255
1362124529772,132.458
1362124589772,132.266
1362124649772,132.302
1362124709772,132.278
1362124769772,132.241
1362124829783,132.490
1362124889783,132.266
1362124949783,132.230
1362125009783,132.152
1362125069783,132.524
1362125129783,132.609
1362125189783,132.279
1362125249783,132.071
1362125309783,132.173
1362125369783,132.613
1362125429783,132.503
1362125489783,132.463
1362125549783,132.210
1362125609783,132.264
1362125669783,132.326
1362125729783,132.417
1362125789783,132.276
1362125849783,132.293
1362125909783,132.232
1362125969783,132.255
1362126029783,132.440
1362126089783,132.285
1362126149783,132.423
1362126209783,132.393
1362126269783,132.108
1362126329783,132.321
1362126389783,132.455
1362126449783,132.217
1362126509783,132.321
1362126569783,132.071
1362126629783,132.177
1362126689783,132.231
1362126749783,132.475
1362126809783,132.187
1362126869783,132.162
1362126929783,132.014
1362126989783,132.229
1362127049783,132.133
1362127109783,132.300
1362127169783,132.218
1362127229783,132.391
1362127289783,132.411
1362127349783,132.100
1362127409783,132.022
1362127469783,131.996
1362127529783,132.075
1362127589783,132.292
1362127649783,132.463
1362127709783,131.987
1362127769783,132.613
1362127829783,132.320
1362127889783,132.385
1362127949783,132.648
1362128009783,132.154
1362128069783,132.452
1362128129783,132.440
1362128189783,132.347
1362128249783,132.399
1362128309783,132.572
1362128369783,132.214
1362128429795,132.266
1362128489795,132.250
1362128549795,132.406
1362128609795,132.571
1362128669795,132.342
1362128729795,132.576
1362128789795,132.625
1362128849795,132.382
1362128909795,132.476
1362128969795,132.765
1362129029795,132.298
1362129089795,132.463
1362129149795,132.602
1362129209795,132.775
1362129269795,132.738
1362129329795,132.605
1362129389795,132.630
1362129449795,133.007
1362129509795,132.702
1362129569795,132.799
1362129629795,132.815
1362129689795,132.948
1362129749795,132.855
1362129809795,132.874
1362129869795,133.166
1362129929795,132.912
1362129989795,132.961
1362130049795,132.999
1362130109795,133.286
1362130169795,133.070
1362130229795,132.837
1362130289795,132.824
1362130349795,133.038
1362130409795,133.049
1362130469795,133.070
1362130529795,133.126
1362130589795,132.919
1362130649795,133.235
1362130709795,133.355
1362130769795,133.049
1362130829795,133.177
1362130889795,133.248
1362130949795,133.278
1362131009795,133.019
1362131069795,133.466
1362131129795,133.335
1362131189795,133.241
1362131249795,133.276
1362131309795,133.472
1362131369795,133.261
1362131429795,133.224
1362131489795,133.401
1362131549795,133.297
1362131609795,133.417
1362131669795,133.687
1362131729795,133.417
1362131789795,133.247
1362131849795,133.458
1362131909795,133.515
1362131969795,133.344
1362132029806,133.570
1362132089806,133.251
1362132149806,133.308
1362132209806,133.695
1362132269806,133.745
1362132329806,133.580
1362132389806,133.810
1362132449806,133.709
1362132509806,133.643
1362132569806,133.742
1362132629806,133.689
1362132689806,133.952
1362132749806,133.898
1362132809806,134.060
1362132869806,134.273
1362132929806,134.160
1362132989806,133.880
1362133049806,133.895
1362133109806,134.267
1362133169806,134.009
1362133229806,134.008
1362133289806,134.196
1362133349806,134.273
1362133409806,134.179
1362133469806,134.278
1362133529806,134.510
1362133589806,133.967
1362133649806,134.327
1362133709806,134.236
1362133769806,134.365
1362133829806,134.416
1362133889806,134.541
1362133949806,134.466
1362134009806,134.382
1362134069806,134.349
1362134129806,134.219
1362134189806,134.195
1362134249806,134.339
1362134309806,134.412
1362134369806,134.137
1362134429806,134.129
1362134489806,134.393
1362134549806,134.451
1362134609806,134.518
1362134669806,134.469
1362134729806,134.436
1362134789806,134.531
1362134849806,134.721
1362134909806,134.485
1362134969806,134.107
1362135029806,134.436
1362135089806,134.661
1362135149806,134.474
1362135209806,134.385
1362135269806,134.569
1362135329806,134.493
1362135389806,134.318
1362135449806,134.376
1362135509806,134.554
1362135569806,134.311
1362135629817,134.477
1362135689817,134.500
1362135749817,134.348
1362135809817,134.949
1362135869817,134.576
1362135929817,134.385
1362135989817,134.767
1362136049817,134.225
1362136109817,134.340
1362136169817,134.332
1362136229817,134.540
1362136289817,134.642
1362136349817,134.292
1362136409817,134.347
1362136469817,134.466
1362136529817,134.306
1362136589817,134.774
1362136649817,134.121
1362136709817,134.570
1362136769817,134.400
1362136829817,134.451
1362136889817,134.174
1362136949817,134.376
1362137009817,134.608
1362137069817,134.573
1362137129817,134.532
1362137189817,134.265
1362137249817,134.413
1362137309817,134.523
1362137369817,134.204
1362137429817,134.456
1362137489817,134.137
1362137549817,134.552
1362137609817,134.307
1362137669817,134.310
1362137729817,134.534
1362137789817,134.580
1362137849817,134.156
1362137909817,134.242
1362137969817,134.315
1362138029817,134.370
1362138089817,134.545
1362138149817,134.467
1362138209817,134.401
1362138269817,134.318
1362138329817,134.204
1362138389817,134.187
1362138449817,134.117
1362138509817,134.298
1362138569817,134.572
1362138629817,134.634
1362138689817,134.377
1362138749817,134.389
1362138809817,134.217
1362138869817,134.424
1362138929817,134.290
1362138989817,134.301
1362139049817,134.368
1362139109817,134.049
1362139169817,134.189
1362139229828,134.286
1362139289828,134.427
1362139349828,134.347
1362139409828,134.492
1362139469828,134.307
1362139529828,134.204
1362139589828,134.316
1362139649828,134.225
1362139709828,134.168
1362139769828,134.400
1362139829828,134.374
1362139889828,134.443
1362139949828,134.696
1362140009828,134.219
1362140069828,134.572
1362140129828,134.061
1362140189828,134.340
1362140249828,134.393
1362140309828,134.283
1362140369828,134.317
1362140429828,134.144
1362140489828,134.409
1362140549828,134.526
1362140609828,134.684
1362140669828,134.563
1362140729828,134.673
1362140789828,134.567
1362140849828,134.361
1362140909828,134.286
1362140969828,134.493
1362141029828,134.614
1362141089828,134.739
1362141149828,134.634
1362141209828,134.474
1362141269828,134.582
1362141329828,134.537
1362141389828,134.566
1362141449828,134.536
1362141509828,134.406
1362141569828,134.561
1362141629828,134.480
1362141689828,134.374
1362141749828,134.395
1362141809828,134.499
1362141869828,134.682
1362141929828,134.832
1362141989828,134.456
1362142049828,134.401
1362142109828,134.381
1362142169828,134.537
1362142229828,134.801
1362142289828,134.657
1362142349828,134.565
1362142409828,134.675
1362142469828,134.538
1362142529828,134.612
1362142589828,135.062
1362142649828,134.494
1362142709828,134.863
1362142769828,134.647
1362142829839,134.602
1362142889839,134.542
1362142949839,134.600
1362143009839,134.431
1362143069839,134.784
1362143129839,134.781
1362143189839,134.606
1362143249839,135.128
1362143309839,134.839
1362143369839,134.750
1362143429839,134.651
1362143489839,135.407
1362143549839,134.626
1362143609839,134.815
1362143669839,134.616
1362143729839,134.418
1362143789839,134.815
1362143849839,134.670
1362143909839,134.922
1362143969839,134.811
1362144029839,134.638
1362144089839,134.654
1362144149839,134.541
1362144209839,134.740
1362144269839,134.566
1362144329839,134.597
1362144389839,134.859
1362144449839,134.564
1362144509839,134.568
1362144569839,134.928
1362144629839,134.642
1362144689839,134.781
1362144749839,134.607
1362144809839,134.573
1362144869839,134.651
1362144929839,134.650
1362144989839,134.659
1362145049839,134.848
1362145109839,134.736
1362145169839,134.665
1362145229839,134.880
1362145289839,134.938
1362145349839,134.515
1362145409839,134.566
1362145469839,134.721
1362145529839,134.617
1362145589839,134.686
1362145649839,134.855
1362145709839,134.571
1362145769839,134.787
1362145829839,134.745
1362145889839,134.700
1362145949839,134.536
1362146009839,134.934
1362146069839,134.815
1362146129839,134.709
1362146189839,134.471
1362146249839,134.557
1362146309839,134.661
1362146369839,134.627
1362146429850,134.560
1362146489850,134.556
1362146549850,134.649
1362146609850,134.625
1362146669850,134.689
1362146729850,134.678
1362146789850,134.600
1362146849850,134.764
1362146909850,134.935
1362146969850,134.736
1362147029850,134.619
1362147089850,134.639
1362147149850,134.792
1362147209850,134.822
1362147269850,134.777
1362147329850,134.960
1362147389850,134.720
1362147449850,134.919
1362147509850,134.772
1362147569850,134.839
1362147629850,134.705
1362147689850,134.916
1362147749850,135.050
1362147809850,134.939
1362147869850,134.860
1362147929850,134.446
1362147989850,134.923
1362148049850,134.840
1362148109850,134.804
1362148169850,134.822
1362148229850,134.770
1362148289850,134.992
1362148349850,134.650
1362148409850,135.040
1362148469850,134.942
1362148529850,134.873
1362148589850,135.102
1362148649850,134.719
1362148709850,134.958
1362148769850,135.261
1362148829850,135.128
1362148889850,134.923
1362148949850,134.981
1362149009850,135.217
1362149069850,135.054
1362149129850,134.847
1362149189850,135.138
1362149249850,135.219
1362149309850,135.033
1362149369850,135.230
1362149429850,135.265
1362149489850,135.348
1362149549850,134.981
1362149609850,135.112
1362149669850,135.124
1362149729850,135.051
1362149789850,135.245
1362149849850,135.277
1362149909850,135.033
1362149969850,135.118
1362150029861,135.170
1362150089861,134.926
1362150149861,135.414
1362150209861,135.174
1362150269861,135.204
1362150329861,135.303
1362150389861,135.038
1362150449861,135.198
1362150509861,135.194
1362150569861,135.110
1362150629861,135.188
1362150689861,135.162
1362150749861,135.073
1362150809861,135.022
1362150869861,135.226
1362150929861,135.275
1362150989861,134.962
1362151049861,135.145
1362151109861,135.363
1362151169861,135.219
1362151229861,135.200
1362151289861,135.280
1362151349861,135.441
1362151409861,135.276
1362151469861,135.303
1362151529861,135.218
1362151589861,135.368
1362151649861,135.474
1362151709861,135.425
1362151769861,135.247
1362151829861,135.472
1362151889861,135.442
1362151949861,135.480
1362152009861,135.398
1362152069861,135.552
1362152129861,135.592
1362152189861,135.450
1362152249861,135.729
1362152309861,135.551
1362152369861,135.442
1362152429861,135.248
1362152489861,135.645
1362152549861,135.632
1362152609861,135.647
1362152669861,135.927
1362152729861,135.467
1362152789861,135.501
1362152849861,135.606
1362152909861,135.587
1362152969861,135.593
1362153029861,135.569
1362153089861,135.605
1362153149861,135.525
1362153209861,135.663
1362153269861,135.713
1362153329861,135.547
1362153389861,135.580
1362153449861,135.378
1362153509861,135.284
1362153569861,135.709
1362153629890,135.564
1362153689890,135.357
1362153749890,135.533
1362153809890,135.503
1362153869890,135.753
1362153929890,135.306
1362153989890,135.437
1362154049890,135.608
1362154109890,135.519
1362154169890,135.440
1362154229890,135.257
1362154289890,135.361
1362154349890,135.145
1362154409890,135.391
1362154469890,135.229
1362154529890,135.238
1362154589890,135.343
1362154649890,135.484
1362154709890,135.320
1362154769890,135.523
1362154829890,135.509
1362154889890,135.219
1362154949890,135.170
1362155009890,135.171
1362155069890,135.075
1362155129890,135.237
1362155189890,135.155
1362155249890,135.206
1362155309890,135.315
1362155369890,135.533
1362155429890,135.091
1362155489890,135.251
1362155549890,135.026
1362155609890,135.247
1362155669890,135.179
1362155729890,135.277
1362155789890,135.152
1362155849890,134.924
1362155909890,134.935
1362155969890,135.308
1362156029890,135.157
1362156089890,135.203
1362156149890,135.063
1362156209890,135.250
1362156269890,135.155
1362156329890,134.878
1362156389890,134.948
1362156449890,135.018
1362156509890,135.255
1362156569890,134.820
1362156629890,135.180
1362156689890,135.091
1362156749890,134.829
1362156809890,135.050
1362156869890,134.951
1362156929890,134.851
1362156989890,135.111
1362157049890,135.003
1362157109890,135.032
1362157169890,135.082
1362157229903,135.106
1362157289903,135.019
1362157349903,135.091
1362157409903,135.189
1362157469903,135.176
1362157529903,134.739
1362157589903,134.895
1362157649903,134.868
1362157709903,134.723
1362157769903,134.978
1362157829903,135.150
1362157889903,135.247
1362157949903,135.010
1362158009903,135.171
1362158069903,134.855
1362158129903,135.105
1362158189903,135.048
1362158249903,135.029
1362158309903,134.906
1362158369903,134.713
1362158429903,135.022
1362158489903,134.959
1362158549903,135.017
1362158609903,135.100
1362158669903,135.061
1362158729903,135.241
1362158789903,134.990
1362158849903,135.307
1362158909903,135.303
1362158969903,135.235
1362159029903,134.807
1362159089903,135.161
1362159149903,135.224
1362159209903,135.291
1362159269903,135.165
1362159329903,135.283
1362159389903,135.172
1362159449903,135.117
1362159509903,135.233
1362159569903,135.315
1362159629903,135.316
1362159689903,135.273
1362159749903,135.558
1362159809903,135.054
1362159869903,135.717
1362159929903,135.030
1362159989903,135.673
1362160049903,135.396
1362160109903,135.107
1362160169903,135.265
1362160229903,135.339
1362160289903,135.448
1362160349903,135.093
1362160409903,135.078
1362160469903,134.897
1362160529903,135.302
1362160589903,135.095
1362160649903,135.120
1362160709903,135.208
1362160769903,135.303
1362160829915,134.957
1362160889915,135.072
1362160949915,135.296
1362161009915,134.757
1362161069915,135.135
1362161129915,135.173
1362161189915,135.150
1362161249915,135.157
1362161309915,135.173
1362161369915,135.197